Regional Weather Roundup
Issued by NWS

Home | Current Version | Previous Version | Text Only | Print | Product List | Glossary Off
Versions: 1 2 3 4 5 6 7 8 9 10 11 12 13 14 15 16 17 18 19 20 21 22 23 24 25 26 27 28 29 30 31 32 33 34 35 36 37 38 39 40 41 42 43 44 45 46 47 48 49 50

000
ASUS44 KMEG 221710
RWRTN
TENNESSEE HOURLY STATE WEATHER ROUNDUP
NATIONAL WEATHER SERVICE MEMPHIS TN
1200 PM CDT SUN APR 22 2018

TNZ002-004-019-021-049-052-054-088>092-221800-
WEST TENNESSEE

CITY           SKY/WX    TMP DP  RH WIND       PRES   REMARKS
MEMPHIS INTL   LGT RAIN  63  61  93 S14       29.92R
NWS MEMPHIS      N/A     61 N/A N/A MISG        N/A
JACKSON        LGT RAIN  59  59 100 E9        29.99F FOG
DYERSBURG      LGT RAIN  56  55  97 E9        30.00F
SOMERVILLE     PTSUNNY   61  59  94 VRB6G12   29.93F FOG
COVINGTON      PTSUNNY   59  57  94 E10       29.95F
UNION CITY     CLOUDY    55  54  94 E10G16    30.02F FOG
BOLIVAR        CLOUDY    59  59 100 SE6       29.98F FOG
PARIS          PTSUNNY   55  54  94 NE9G20    30.04F FOG
HUNTINGDON     CLOUDY    57  55  94 E12       30.02F FOG
LEXINGTON      CLOUDY    59  57  94 VRB5G12   30.02F FOG
SELMER         CLOUDY    59  59 100 SE8       29.99F FOG
SAVANNAH       CLOUDY    61  59  94 SE9G16    30.00F
$$

TNZ008-025-027-028-033-062-065-066-221800-
NORTH MIDDLE TENNESSEE

CITY           SKY/WX    TMP DP  RH WIND       PRES   REMARKS
NASHVILLE      RAIN      60  57  89 S9        30.14R FOG
PORTLAND       MOSUNNY   59  55  88 SE9       30.14F
CLARKSVILLE    LGT RAIN  57  53  86 E8        30.11S FOG
SMYRNA         LGT RAIN  59  57  93 SE10      30.14S FOG
COOKEVILLE     SUNNY     57  54  88 SE8       30.16F HAZE
LIVINGSTON     PTSUNNY   61  45  55 SE9       30.18F
GALLATIN       SUNNY     57  55  94 VRB6      30.17F FOG
CROSSVILLE     LGT RAIN  55  48  77 E8        30.21F
ROCKWOOD       PTSUNNY   61  43  51 S7        30.22S
$$

TNZ061-075-076-078-094-096-097-221800-
SOUTH MIDDLE TENNESSEE

CITY           SKY/WX    TMP DP  RH WIND       PRES   REMARKS
LEWISBURG      CLOUDY    59  57  94 E8        30.11S FOG
FAYETTEVILLE   CLOUDY    57  57 100 E6        30.10S FOG
TULLAHOMA      CLOUDY    57  55  94 E8G18     30.11F
WINCHESTER     CLOUDY    57  55  94 SE9       30.11F FOG
MCMINNVILLE    MOSUNNY   57  55  94 E6        30.15F FOG
COLUMBIA       PTSUNNY   59  59 100 E9G17     30.07F
SHELBYVILLE    CLOUDY    59  55  88 SE12G22   30.12S
$$

TNZ017-018-042-046-047-221800-
NORTHEAST TENNESSEE

CITY           SKY/WX    TMP DP  RH WIND       PRES   REMARKS
TRI CITIES     CLOUDY    69  45  41 SE6       30.25F
ELIZABETHTON   FAIR      70  45  40 CALM      30.24F
$$

TNZ012-013-036-069-073-074-221800-
CENTRAL EAST TENNESSEE

CITY           SKY/WX    TMP DP  RH WIND       PRES   REMARKS
KNOXVILLE      CLOUDY    65  46  50 NE7       30.20F
OAK RIDGE      FAIR      66  45  46 CALM      30.22F
DOWNTOWN KNOXV SUNNY     66  46  48 CALM      30.21F
GATLINBURG     CLOUDY    66  43  42 N6        30.21S
MORRISTOWN     SUNNY     66  43  42 VRB3      30.22F
JACKSBORO      PTSUNNY   63  41  45 CALM      30.25F
$$

TNZ083-085-099-221800-
SOUTHEAST TENNESSEE

CITY           SKY/WX    TMP DP  RH WIND       PRES   REMARKS
CHATTANOOGA    LGT RAIN  58  55  90 N8        30.18F FOG
DAYTON         CLOUDY    55  55 100 CALM      30.20F FOG
$$

SKY/WX REPORTED AS FAIR MEANS FEW OR NO CLOUDS BELOW
12 THOUSAND FEET.





USA.gov is the U.S. government's official web portal to all federal, state and local government web resources and services.